Location: Lachepaillet
(43.4918°N, 1.4874°W)
Time: 03:14:06
(UTC+00:00)

RESURS DK-1 - Pass Details

Date: 15 May 2026
Orbit: 522 x 531 km, 69.9° (Epoch: 8 June)

Event Time Altitude Azimuth Distance (km) Brightness Sun altitude
Rises 22:14:45 0° 345° (NNW) 2,680 7.2 -22.8°
Reaches altitude 10° 22:17:20 10° 1° (N) 1,787 5.8 -23.0°
Maximum altitude 22:20:27 22° 53° (NE) 1,214 4.1 -23.2°
Enters shadow 22:20:47 21° 60° (ENE) 1,222 4.1 -23.3°
